FW8327 Weather Reports


Display with metric or nautical units.
time (UTC)temp
F
wind
direction
speed
MPH
gust
MPH
rain 1hr
in
rain 24hr
in
rain mn
in
humidity
%
barometer
mb
20260904160038 90 207 0.0 0.0 0.00 0.00 0.00 71 1014.7
20260904155538 90 256 3.0 4.0 0.00 0.00 0.00 70 1014.6
20260904155038 90 256 1.0 2.0 0.00 0.00 0.00 71 1014.6
20260904154532 90 264 0.0 1.0 0.00 0.00 0.00 73 1014.5
20260904154026 90 227 0.0 0.0 0.00 0.00 0.00 71 1014.5
20260904153526 90 244 0.0 0.0 0.00 0.00 0.00 74 1014.4
20260904153017 89 266 0.0 1.0 0.00 0.00 0.00 72 1014.5
20260904152512 89 283 1.0 2.0 0.00 0.00 0.00 75 1014.7
20260904152007 88 194 0.0 0.0 0.00 0.00 0.00 75 1014.8
20260904151502 88 260 0.0 0.0 0.00 0.00 0.00 75 1014.7
20260904150957 88 249 0.0 0.0 0.00 0.00 0.00 74 1014.7
20260904150452 87 266 0.0 0.0 0.00 0.00 0.00 75 1014.7
20260904145950 87 231 1.0 1.0 0.00 0.00 0.00 76 1014.7
20260904145446 87 259 2.0 2.0 0.00 0.00 0.00 76 1015.0
20260904144941 87 179 0.0 0.0 0.00 0.00 0.00 75 1014.9
20260904144437 87 253 0.0 0.0 0.00 0.00 0.00 78 1014.7
20260904143933 86 240 0.0 0.0 0.00 0.00 0.00 78 1014.9
20260904143429 86 266 1.0 2.0 0.00 0.00 0.00 77 1014.8
20260904142925 86 208 0.0 1.0 0.00 0.00 0.00 79 1014.7
20260904142421 85 241 1.0 2.0 0.00 0.00 0.00 78 1014.7
20260904141920 85 271 0.0 1.0 0.00 0.00 0.00 79 1014.6
20260904141416 85 236 0.0 0.0 0.00 0.00 0.00 79 1014.6
20260904140912 85 248 1.0 1.0 0.00 0.00 0.00 79 1014.6
20260904140412 85 218 0.0 0.0 0.00 0.00 0.00 79 1014.5
20260904135911 85 222 0.0 0.0 0.00 0.00 0.00 79 1014.5
20260904135411 85 244 0.0 1.0 0.00 0.00 0.00 78 1014.5
20260904134908 84 235 0.0 0.0 0.00 0.00 0.00 80 1014.6
20260904134407 84 152 0.0 0.0 0.00 0.00 0.00 80 1014.4
20260904133902 84 163 0.0 0.0 0.00 0.00 0.00 79 1014.5
20260904133357 84 159 0.0 0.0 0.00 0.00 0.00 80 1014.4
20260904132852 84 192 0.0 0.0 0.00 0.00 0.00 80 1014.5
20260904132348 83 177 0.0 0.0 0.00 0.00 0.00 82 1014.4
20260904131847 83 171 0.0 0.0 0.00 0.00 0.00 81 1014.4
20260904131343 83 179 0.0 0.0 0.00 0.00 0.00 81 1014.5
20260904130838 82 196 0.0 0.0 0.00 0.00 0.00 83 1014.6
20260904130337 82 199 0.0 0.0 0.00 0.00 0.00 83 1014.3
20260904125832 81 174 0.0 0.0 0.00 0.00 0.00 84 1014.3
20260904125329 81 159 0.0 0.0 0.00 0.00 0.00 85 1014.3
20260904124827 80 167 0.0 0.0 0.00 0.00 0.00 86 1014.4
20260904124324 79 186 0.0 0.0 0.00 0.00 0.00 87 1014.5
20260904123825 79 175 0.0 0.0 0.00 0.00 0.00 87 1014.3
20260904123320 79 156 0.0 0.0 0.00 0.00 0.00 87 1014.4
20260904122815 78 169 0.0 0.0 0.00 0.00 0.00 89 1014.4
20260904122315 78 159 0.0 0.0 0.00 0.00 0.00 89 1014.3
20260904121810 77 167 0.0 0.0 0.00 0.00 0.00 90 1014.1
20260904121306 77 171 0.0 0.0 0.00 0.00 0.00 91 1014.1
20260904120803 76 153 0.0 0.0 0.00 0.00 0.00 92 1014.2
20260904120257 76 159 0.0 0.0 0.00 0.00 0.00 92 1014.1
20260904115753 75 157 0.0 0.0 0.00 0.00 0.00 93 1014.1
20260904115248 75 171 0.0 0.0 0.00 0.00 0.00 94 1014.0
20260904114743 75 168 0.0 0.0 0.00 0.00 0.00 95 1013.8
20260904114242 74 169 0.0 0.0 0.00 0.00 0.00 96 1013.9
20260904113737 74 166 0.0 0.0 0.00 0.00 0.00 96 1013.6
20260904113236 74 162 0.0 0.0 0.00 0.00 0.00 96 1013.5
20260904112732 74 161 0.0 0.0 0.00 0.00 0.00 96 1013.4
20260904112227 74 161 0.0 0.0 0.00 0.00 0.00 96 1013.5
20260904111723 74 161 0.0 0.0 0.00 0.00 0.00 97 1013.4
20260904111218 74 161 0.0 0.0 0.00 0.00 0.00 96 1013.2
20260904110714 74 161 0.0 0.0 0.00 0.00 0.00 96 1013.2
20260904110213 74 159 0.0 0.0 0.00 0.00 0.00 96 1013.1
20260904105708 74 161 0.0 0.0 0.00 0.00 0.00 96 1013.1
20260904105203 74 161 0.0 0.0 0.00 0.00 0.00 95 1013.1
20260904104658 74 161 0.0 0.0 0.00 0.00 0.00 95 1013.2
20260904104154 74 161 0.0 0.0 0.00 0.00 0.00 95 1013.4
20260904103650 74 161 0.0 0.0 0.00 0.00 0.00 95 1013.0
20260904103145 74 161 0.0 0.0 0.00 0.00 0.00 94 1013.4
20260904102641 75 161 0.0 0.0 0.00 0.00 0.00 94 1013.2
20260904102136 75 161 0.0 0.0 0.00 0.00 0.00 94 1013.2
20260904101633 75 161 0.0 0.0 0.00 0.00 0.00 93 1013.1
20260904101128 75 161 0.0 0.0 0.00 0.00 0.00 93 1013.1
20260904100624 75 161 0.0 0.0 0.00 0.00 0.00 93 1013.1
20260904100119 75 161 0.0 0.0 0.00 0.00 0.00 92 1013.1
20260904095614 75 161 0.0 0.0 0.00 0.00 0.00 92 1013.0
20260904095108 75 161 0.0 0.0 0.00 0.00 0.00 91 1013.0
20260904094609 75 161 0.0 0.0 0.00 0.00 0.00 91 1013.1
20260904094103 75 161 0.0 0.0 0.00 0.00 0.00 91 1013.2
20260904093600 75 161 0.0 0.0 0.00 0.00 0.00 91 1013.2
20260904093055 75 161 0.0 0.0 0.00 0.00 0.00 90 1013.1
20260904092551 75 161 0.0 0.0 0.00 0.00 0.00 90 1012.9
20260904092047 75 162 0.0 0.0 0.00 0.00 0.00 90 1013.0
20260904091543 75 162 0.0 0.0 0.00 0.00 0.00 90 1012.8
20260904091042 75 162 0.0 0.0 0.00 0.00 0.00 89 1013.0
20260904090538 76 162 0.0 0.0 0.00 0.00 0.00 89 1012.8
20260904090033 76 162 0.0 0.0 0.00 0.00 0.00 88 1012.9
20260904085528 76 162 0.0 0.0 0.00 0.00 0.00 88 1012.7
20260904085028 76 162 0.0 0.0 0.00 0.00 0.00 87 1012.7
20260904084524 76 162 0.0 0.0 0.00 0.00 0.00 87 1012.7
20260904084020 76 162 0.0 0.0 0.00 0.00 0.00 87 1012.8
20260904083516 77 162 0.0 0.0 0.00 0.00 0.00 85 1012.7
20260904083011 78 162 0.0 0.0 0.00 0.00 0.00 83 1012.7
20260904082506 78 158 0.0 0.0 0.00 0.00 0.00 82 1012.7
20260904082001 77 158 0.0 0.0 0.00 0.00 0.00 82 1012.8
20260904081456 77 159 0.0 0.0 0.00 0.00 0.00 84 1012.5
20260904080952 76 159 0.0 0.0 0.00 0.00 0.00 84 1012.7
20260904080447 77 159 0.0 0.0 0.00 0.00 0.00 84 1012.8
20260904075943 77 159 0.0 0.0 0.00 0.00 0.00 84 1012.7
20260904075439 77 159 0.0 0.0 0.00 0.00 0.00 83 1012.9
20260904074938 78 159 0.0 0.0 0.00 0.00 0.00 83 1012.9
20260904074433 78 176 0.0 0.0 0.00 0.00 0.00 83 1013.1
20260904073928 77 173 0.0 0.0 0.00 0.00 0.00 85 1013.6
20260904073424 75 164 0.0 0.0 0.00 0.00 0.00 93 1013.1
20260904072919 75 151 0.0 0.0 0.00 0.00 0.00 97 1013.4
20260904072414 75 157 0.0 0.0 0.00 0.00 0.00 98 1013.7
20260904071910 74 162 0.0 0.0 0.00 0.00 0.00 98 1013.8
20260904071405 74 162 0.0 0.0 0.00 0.00 0.00 98 1013.6
20260904070900 74 162 0.0 0.0 0.00 0.00 0.00 98 1013.7
20260904070359 75 162 0.0 0.0 0.00 0.00 0.00 97 1013.6
20260904065853 75 162 0.0 0.0 0.00 0.00 0.00 97 1013.7
20260904065349 75 162 0.0 0.0 0.00 0.00 0.00 97 1013.6
20260904064844 75 162 0.0 0.0 0.00 0.00 0.00 97 1013.7
20260904064340 75 161 0.0 0.0 0.00 0.00 0.00 97 1013.8
20260904063835 75 164 0.0 0.0 0.00 0.00 0.00 97 1013.8
20260904063332 75 164 0.0 0.0 0.00 0.00 0.00 97 1013.8
20260904062832 75 164 0.0 0.0 0.00 0.00 0.00 97 1013.9
20260904062328 75 164 0.0 0.0 0.00 0.00 0.00 97 1013.8
20260904061823 75 164 0.0 0.0 0.00 0.00 0.00 97 1014.0
20260904061320 75 164 0.0 0.0 0.00 0.00 0.00 97 1013.9
20260904060816 75 164 0.0 0.0 0.00 0.00 0.00 97 1014.0
20260904060312 75 164 0.0 0.0 0.00 0.00 0.00 97 1014.2
20260904055806 75 164 0.0 0.0 0.00 0.00 0.00 97 1013.8
20260904055301 75 164 0.0 0.0 0.00 0.00 0.00 97 1014.0
20260904054757 75 164 0.0 0.0 0.00 0.00 0.00 97 1014.2
20260904054253 75 164 0.0 0.0 0.00 0.00 0.00 96 1014.2
20260904053748 75 164 0.0 0.0 0.00 0.00 0.00 96 1014.3
20260904053248 76 164 0.0 0.0 0.00 0.00 0.00 96 1014.1
20260904052744 76 164 0.0 0.0 0.00 0.00 0.00 96 1014.0
20260904052240 76 164 0.0 0.0 0.00 0.00 0.00 96 1014.0
20260904051736 76 164 0.0 0.0 0.00 0.00 0.00 95 1014.1
20260904051231 76 164 0.0 0.0 0.00 0.00 0.00 95 1014.1
20260904050726 76 164 0.0 0.0 0.00 0.00 0.00 95 1014.1
20260904050222 76 164 0.0 0.0 0.00 0.00 0.00 95 1014.1
20260904045717 76 164 0.0 0.0 0.00 0.00 0.00 95 1014.3
20260904045212 76 164 0.0 0.0 0.00 0.00 0.00 95 1014.1
20260904044707 76 164 0.0 0.0 0.00 0.00 0.00 94 1014.2
20260904044203 76 164 0.0 0.0 0.00 0.00 0.00 94 1014.0
20260904043700 76 164 0.0 0.0 0.00 0.00 0.00 94 1014.1
20260904043155 76 164 0.0 0.0 0.00 0.00 0.00 94 1014.1
20260904042651 76 164 0.0 0.0 0.00 0.00 0.00 94 1014.0
20260904042147 76 164 0.0 0.0 0.00 0.00 0.00 94 1013.9
20260904041641 76 164 0.0 0.0 0.00 0.00 0.00 93 1014.0
20260904041138 77 164 0.0 0.0 0.00 0.00 0.00 93 1014.0
20260904040633 77 164 0.0 0.0 0.00 0.00 0.00 92 1014.0
20260904040129 77 164 0.0 0.0 0.00 0.00 0.00 92 1014.0
20260904035625 77 150 0.0 0.0 0.00 0.00 0.00 91 1014.1
20260904035124 78 149 0.0 0.0 0.00 0.00 0.00 90 1013.9
20260904034624 78 136 0.0 0.0 0.00 0.00 0.00 90 1013.8
20260904034120 78 156 0.0 0.0 0.00 0.00 0.00 91 1013.7
20260904033615 78 167 0.0 0.0 0.00 0.00 0.00 90 1013.9
20260904033113 78 155 0.0 0.0 0.00 0.00 0.00 90 1013.9
20260904032608 78 130 0.0 0.0 0.00 0.00 0.00 90 1013.7
20260904032107 78 137 0.0 0.0 0.00 0.00 0.00 90 1013.8
20260904031606 78 143 0.0 0.0 0.00 0.00 0.00 91 1013.7
20260904031103 78 150 0.0 0.0 0.00 0.00 0.00 92 1013.7
20260904030558 78 148 0.0 0.0 0.00 0.00 0.00 93 1013.7
20260904030053 77 148 0.0 0.0 0.00 0.00 0.00 93 1014.1
20260904025549 77 148 0.0 0.0 0.00 0.00 0.00 94 1014.0
20260904025044 77 148 0.0 0.0 0.00 0.00 0.00 93 1014.0
20260904024539 77 148 0.0 0.0 0.00 0.00 0.00 92 1014.0
20260904024035 77 148 0.0 0.0 0.00 0.00 0.00 91 1013.9
20260904023531 78 148 0.0 0.0 0.00 0.00 0.00 90 1014.0
20260904023026 78 148 0.0 0.0 0.00 0.00 0.00 90 1014.1
20260904022521 79 148 0.0 0.0 0.00 0.00 0.00 90 1014.1
20260904022018 79 148 0.0 0.0 0.00 0.00 0.00 89 1013.9
20260904021514 79 148 0.0 0.0 0.00 0.00 0.00 88 1013.6
20260904021009 79 148 0.0 0.0 0.00 0.00 0.00 87 1013.8
20260904020508 80 148 0.0 0.0 0.00 0.00 0.00 86 1013.8
20260904020003 80 148 0.0 0.0 0.00 0.00 0.00 85 1013.9
20260904015458 80 145 0.0 0.0 0.00 0.00 0.00 85 1013.9
20260904014956 80 140 0.0 0.0 0.00 0.00 0.00 85 1013.9
20260904014451 80 140 0.0 0.0 0.00 0.00 0.00 84 1013.7
20260904013947 80 140 0.0 0.0 0.00 0.00 0.00 84 1013.7
20260904013443 80 138 0.0 0.0 0.00 0.00 0.00 84 1013.8
20260904012939 80 142 0.0 0.0 0.00 0.00 0.00 84 1013.8
20260904012438 80 142 0.0 0.0 0.00 0.00 0.00 83 1013.7
20260904011933 80 141 0.0 0.0 0.00 0.00 0.00 82 1013.8
20260904011427 81 141 0.0 0.0 0.00 0.00 0.00 81 1013.7
20260904010922 81 140 0.0 0.0 0.00 0.00 0.00 79 1013.6
20260904010414 81 142 0.0 0.0 0.00 0.00 0.00 79 1013.7
20260904005908 81 142 0.0 0.0 0.00 0.00 0.00 79 1013.7
20260904005404 82 142 0.0 0.0 0.00 0.00 0.00 78 1013.6
20260904004858 82 134 0.0 0.0 0.00 0.00 0.00 78 1013.7
20260904004355 81 120 0.0 0.0 0.00 0.00 0.00 79 1013.8
20260904003849 82 105 0.0 0.0 0.00 0.00 0.00 80 1013.8
20260904003345 82 53 0.0 0.0 0.00 0.00 0.00 79 1013.6
20260904002840 83 55 0.0 0.0 0.00 0.00 0.00 80 1013.6
20260904002337 84 37 0.0 0.0 0.00 0.00 0.00 81 1013.4
20260904001836 83 322 0.0 0.0 0.00 0.00 0.00 83 1013.6
20260904001331 83 129 0.0 0.0 0.00 0.00 0.00 84 1013.4
20260904000826 86 63 0.0 0.0 0.00 0.00 0.00 79 1013.1
20260904000325 87 163 0.0 0.0 0.00 0.00 0.00 74 1013.1
20260903235820 88 154 0.0 0.0 0.00 0.00 0.00 72 1013.0
20260903235317 89 172 0.0 0.0 0.00 0.00 0.00 71 1012.9
20260903234815 89 160 0.0 0.0 0.00 0.00 0.00 71 1013.0
20260903234312 90 155 0.0 0.0 0.00 0.00 0.00 70 1013.1
20260903233808 90 160 0.0 0.0 0.00 0.00 0.00 69 1012.9
20260903233304 90 165 0.0 0.0 0.00 0.00 0.00 68 1012.8
20260903232803 90 162 0.0 0.0 0.00 0.00 0.00 70 1012.9
20260903232259 90 151 0.0 0.0 0.00 0.00 0.00 68 1013.1
20260903231758 91 170 0.0 0.0 0.00 0.00 0.00 67 1012.9
20260903231253 91 173 0.0 0.0 0.00 0.00 0.00 67 1012.8
20260903230748 91 189 0.0 0.0 0.00 0.00 0.00 67 1012.9
20260903230248 91 205 0.0 0.0 0.00 0.00 0.00 67 1012.8
20260903225744 91 209 0.0 0.0 0.00 0.00 0.00 67 1012.7
20260903225241 91 200 0.0 0.0 0.00 0.00 0.00 66 1012.7
20260903224737 92 162 0.0 0.0 0.00 0.00 0.00 65 1012.5
20260903224233 92 202 0.0 0.0 0.00 0.00 0.00 64 1012.4
20260903223728 92 211 0.0 0.0 0.00 0.00 0.00 63 1012.4
20260903223226 92 168 0.0 0.0 0.00 0.00 0.00 63 1012.4
20260903222721 92 250 0.0 0.0 0.00 0.00 0.00 63 1012.3
20260903222220 92 219 0.0 0.0 0.00 0.00 0.00 64 1012.2
20260903221715 92 167 0.0 0.0 0.00 0.00 0.00 66 1012.5
20260903221214 93 243 0.0 2.0 0.00 0.00 0.00 64 1012.7
20260903220713 93 190 0.0 0.0 0.00 0.00 0.00 64 1012.5
20260903220208 93 184 0.0 1.0 0.00 0.00 0.00 63 1012.5
20260903215707 93 166 0.0 0.0 0.00 0.00 0.00 62 1012.5
20260903215202 92 233 0.0 0.0 0.00 0.00 0.00 64 1012.4
20260903214700 93 267 1.0 1.0 0.00 0.00 0.00 63 1012.5
20260903214156 93 243 0.0 0.0 0.00 0.00 0.00 63 1012.4
20260903213650 93 172 0.0 0.0 0.00 0.00 0.00 63 1012.4
20260903213147 93 221 0.0 0.0 0.00 0.00 0.00 61 1012.4
20260903212642 93 173 0.0 0.0 0.00 0.00 0.00 64 1012.7
20260903212138 93 248 0.0 0.0 0.00 0.00 0.00 64 1012.5
20260903211632 93 193 0.0 0.0 0.00 0.00 0.00 63 1012.7
20260903211129 94 155 0.0 0.0 0.00 0.00 0.00 64 1012.5
20260903210624 94 190 0.0 0.0 0.00 0.00 0.00 63 1012.6
20260903210120 93 158 0.0 0.0 0.00 0.00 0.00 63 1012.7
20260903205619 94 136 0.0 0.0 0.00 0.00 0.00 62 1012.4
20260903205113 93 164 0.0 0.0 0.00 0.00 0.00 64 1012.6
20260903204608 93 164 0.0 0.0 0.00 0.00 0.00 64 1012.6
20260903204104 94 266 1.0 2.0 0.00 0.00 0.00 61 1012.5
20260903203559 94 161 0.0 0.0 0.00 0.00 0.00 61 1012.5
20260903203054 94 140 0.0 0.0 0.00 0.00 0.00 64 1012.5
20260903202550 93 174 0.0 0.0 0.00 0.00 0.00 66 1012.5
20260903202045 93 250 1.0 2.0 0.00 0.00 0.00 64 1012.4
20260903201539 93 236 0.0 1.0 0.00 0.00 0.00 64 1012.5
20260903201039 94 235 0.0 0.0 0.00 0.00 0.00 61 1012.8
20260903200534 94 131 0.0 0.0 0.00 0.00 0.00 60 1012.7
20260903200029 95 254 0.0 0.0 0.00 0.00 0.00 60 1012.8
20260903195525 94 166 0.0 0.0 0.00 0.00 0.00 60 1012.8
20260903195020 95 259 0.0 0.0 0.00 0.00 0.00 62 1013.1
20260903194515 95 151 0.0 0.0 0.00 0.00 0.00 63 1013.1
20260903194010 94 159 0.0 0.0 0.00 0.00 0.00 60 1013.2
20260903193506 93 250 0.0 0.0 0.00 0.00 0.00 61 1013.4
20260903193000 93 270 2.0 2.0 0.00 0.00 0.00 60 1013.4
20260903192453 94 260 1.0 2.0 0.00 0.00 0.00 59 1013.5
20260903191947 94 221 0.0 1.0 0.00 0.00 0.00 59 1013.6
20260903191444 95 229 0.0 0.0 0.00 0.00 0.00 58 1013.7
20260903190942 93 199 0.0 0.0 0.00 0.00 0.00 61 1013.7
20260903190437 93 259 0.0 0.0 0.00 0.00 0.00 63 1014.0
20260903185931 94 269 1.0 2.0 0.00 0.00 0.00 58 1014.0
20260903185427 93 198 0.0 0.0 0.00 0.00 0.00 60 1013.9
20260903184921 94 240 0.0 1.0 0.00 0.00 0.00 61 1013.9
20260903184419 94 157 0.0 0.0 0.00 0.00 0.00 62 1014.0
20260903183918 94 247 0.0 1.0 0.00 0.00 0.00 59 1014.0
20260903183413 94 174 0.0 0.0 0.00 0.00 0.00 62 1014.1
20260903182912 94 222 0.0 0.0 0.00 0.00 0.00 61 1013.9
20260903182411 93 194 0.0 0.0 0.00 0.00 0.00 61 1013.9
20260903181907 94 203 0.0 0.0 0.00 0.00 0.00 60 1013.8
20260903181401 94 241 1.0 3.0 0.00 0.00 0.00 59 1014.0
20260903180900 93 165 0.0 0.0 0.00 0.00 0.00 64 1013.9
20260903180355 93 163 0.0 1.0 0.00 0.00 0.00 63 1013.9
20260903175855 93 180 0.0 0.0 0.00 0.00 0.00 62 1014.0
20260903175349 94 163 0.0 0.0 0.00 0.00 0.00 61 1013.9
20260903174843 93 168 0.0 0.0 0.00 0.00 0.00 63 1014.0
20260903174338 93 166 1.0 2.0 0.00 0.00 0.00 61 1014.0
20260903173832 93 164 0.0 0.0 0.00 0.00 0.00 62 1014.1
20260903173328 93 238 0.0 0.0 0.00 0.00 0.00 65 1014.3
20260903172824 93 151 0.0 0.0 0.00 0.00 0.00 62 1014.3
20260903172318 93 185 0.0 0.0 0.00 0.00 0.00 61 1014.3
20260903171808 93 199 0.0 0.0 0.00 0.00 0.00 63 1014.2
20260903171303 93 148 0.0 2.0 0.00 0.00 0.00 62 1014.3
20260903170756 92 171 0.0 0.0 0.00 0.00 0.00 63 1014.2
20260903170252 92 235 0.0 0.0 0.00 0.00 0.00 63 1014.4
20260903165750 92 162 0.0 0.0 0.00 0.00 0.00 62 1014.3
20260903165245 91 192 0.0 0.0 0.00 0.00 0.00 64 1014.5
20260903164744 91 248 1.0 2.0 0.00 0.00 0.00 64 1014.5
20260903164241 91 189 0.0 0.0 0.00 0.00 0.00 64 1014.5
20260903163734 92 265 2.0 4.0 0.00 0.00 0.00 63 1014.6
20260903163231 91 179 0.0 0.0 0.00 0.00 0.00 65 1014.7
20260903162727 91 176 0.0 1.0 0.00 0.00 0.00 67 1014.7
20260903162222 92 175 0.0 0.0 0.00 0.00 0.00 66 1014.9
20260903161718 92 226 0.0 0.0 0.00 0.00 0.00 69 1015.0
20260903161213 91 249 0.0 0.0 0.00 0.00 0.00 68 1014.7
20260903160709 90 180 0.0 0.0 0.00 0.00 0.00 67 1014.9